FW3886 Weather Reports


time (UTC)temp
C
wind
direction
speed
KPH
gust
KPH
rain 1hr
cm
rain 24hr
cm
rain mn
cm
humidity
%
barometer
mb
20260509174005 22 326 0.0 0.0 0.00 0.00 0.00 89 1013.9
20260509164001 23 353 0.0 0.0 0.00 0.00 0.00 86 1014.2
20260509154002 23 17 0.0 0.0 0.00 0.00 0.00 86 1014.6
20260509133958 25 331 0.0 0.0 0.00 0.00 0.00 83 1015.0
20260509124000 24 345 0.0 0.0 0.00 0.00 0.00 87 1015.0
20260509114000 25 345 0.0 0.0 0.00 0.00 0.00 88 1014.9
20260509104000 25 345 0.0 0.0 0.00 0.00 0.00 92 1014.3
20260509093957 25 345 0.0 0.0 0.00 0.00 0.00 90 1013.7
20260509083958 28 345 0.0 0.0 0.00 0.00 0.00 79 1013.1
20260509073958 30 319 0.0 0.0 0.00 0.00 0.00 73 1012.3
20260509064001 31 173 0.0 0.0 0.00 0.00 0.00 72 1012.0
20260509054001 31 244 0.0 0.0 0.00 0.00 0.00 72 1012.2
20260509043956 31 18 0.0 0.0 0.00 0.00 0.00 71 1012.8
20260509033959 30 1 0.0 0.0 0.00 0.00 0.00 73 1013.5
20260509023959 28 341 0.0 0.0 0.00 0.00 0.00 75 1014.2
20260509013956 27 334 0.0 0.0 0.00 0.00 0.00 79 1015.2
20260509003955 26 30 0.0 0.0 0.00 0.00 0.00 78 1015.4
20260508233954 23 324 0.0 0.0 0.00 0.00 0.00 80 1015.8
20260508223958 21 348 0.0 0.0 0.00 0.00 0.00 84 1015.3
20260508213959 20 334 0.0 0.0 0.00 0.00 0.00 86 1014.6
20260508203955 20 354 0.0 0.0 0.00 0.00 0.00 86 1014.0
20260508193958 21 292 0.0 0.0 0.00 0.00 0.00 86 1013.5
20260508183955 21 337 0.0 0.0 0.00 0.00 0.00 86 1013.4